Terminal Aerodrome Forecast
Issued by NWS

Home | Current Version | Previous Version | Text Only | Print | Product List | Glossary On
Versions: 1 2 3 4 5 6 7 8 9 10 11 12 13 14 15
000
FTUS44 KLZK 191251 AAA
TAFPBF
TAF AMD
KPBF 191251Z 1913/2012 VRB03KT P6SM BKN250
     FM191500 15007KT P6SM BKN250
     FM200000 VRB03KT P6SM BKN250=

USA.gov is the U.S. government's official web portal to all federal, state and local government web resources and services.